This is the latest recevied weather packets stored in our database for station/object F4IVW-13. If no packets are shown the sender has not sent any weather packets the latest 10 day(s).
| Time | Temp. | Humidity | Pressure | Rain* | Wind** | Luminosity | Snow |
|---|---|---|---|---|---|---|---|
| 1777802629 | 21.11° C | 99% | 1014.6 hPa | 0 mm | - | 26 W/m² | - |
| 1777802302 | 22.22° C | 99% | 1014.6 hPa | 0 mm | - | 22 W/m² | - |
| 1777801983 | 22.22° C | 99% | 1014.6 hPa | 0 mm | - | 21 W/m² | - |
| 1777801666 | 21.67° C | 99% | 1014.5 hPa | 0 mm | - | 56 W/m² | - |
| 1777801351 | 21.11° C | 99% | 1014.6 hPa | 0 mm | - | 62 W/m² | - |
| 1777801031 | 21.67° C | 99% | 1014.6 hPa | 0 mm | - | 40 W/m² | - |
| 1777800720 | 21.67° C | 99% | 1014.6 hPa | 0 mm | - | 38 W/m² | - |
| 1777800398 | 22.22° C | 99% | 1014.7 hPa | 0 mm | - | 32 W/m² | - |
| 1777800077 | 21.67° C | 99% | 1014.7 hPa | 0 mm | - | 58 W/m² | - |
| 1777799760 | 21.67° C | 99% | 1014.7 hPa | 0 mm | - | 71 W/m² | - |
| 1777799443 | 20.56° C | 99% | 1014.7 hPa | 0 mm | - | 75 W/m² | - |
| 1777799126 | 20° C | 99% | 1014.7 hPa | 0 mm | - | 73 W/m² | - |
| 1777798816 | 20.56° C | 99% | 1014.6 hPa | 0 mm | - | 44 W/m² | - |
| 1777798492 | 20.56° C | 99% | 1014.7 hPa | 0 mm | - | 16 W/m² | - |
| 1777798169 | 20.56° C | 99% | 1014.8 hPa | 0 mm | - | 75 W/m² | - |
| 1777797854 | 20.56° C | 99% | 1014.7 hPa | 0 mm | - | 38 W/m² | - |
| 1777797535 | 21.11° C | 99% | 1014.7 hPa | 0 mm | - | 30 W/m² | - |
| 1777797221 | 20.56° C | 99% | 1014.6 hPa | 0 mm | - | 26 W/m² | - |
| 1777796906 | 20° C | 99% | 1014.6 hPa | 0 mm | - | 83 W/m² | - |
| 1777796581 | 20.56° C | 99% | 1014.7 hPa | 0 mm | - | 58 W/m² | - |
| 1777796263 | 19.44° C | 99% | 1014.7 hPa | 0 mm | - | 6 W/m² | - |
| 1777795944 | 19.44° C | 99% | 1014.7 hPa | 0 mm | - | 25 W/m² | - |
| 1777795627 | 19.44° C | 99% | 1014.7 hPa | 0 mm | - | 8 W/m² | - |
| 1777795310 | 18.89° C | 99% | 1014.7 hPa | 0 mm | - | 19 W/m² | - |
| 1777795002 | 17.78° C | 99% | 1014.8 hPa | 0 mm | - | 44 W/m² | - |
* Rain latest hour (hover to see other rain measurements)
** Current wind speed in m/s (hover to see current wind gust speed)